1516269600.22,987,8.75,71930.3,-10.73,-14.83,-15.01,0,*68
1516269601.43,988,8.75,71928.3,-10.73,-14.89,-15.11,0,*6C
1516269602.69,989,8.75,71930.3,-10.73,-14.83,-15.01,0,*66
1516269603.98,990,8.75,71930.0,-10.75,-14.83,-14.97,0,*66
1516269605.24,991,8.69,71924.3,-10.75,-14.83,-14.89,0,*68
1516269606.47,992,8.69,71922.0,-10.73,-14.69,-14.83,0,*63
1516269607.73,993,8.75,71922.3,-10.75,-14.75,-14.89,0,*63
1516269608.93,994,8.75,71920.0,-10.73,-14.69,-14.89,0,*6F
1516269610.19,995,8.75,71922.5,-10.75,-15.01,-15.25,0,*60
1516269611.41,996,8.75,71926.3,-10.75,-15.11,-15.15,0,*61
1516269612.66,997,8.75,71930.5,-10.77,-14.93,-15.01,0,*6C
1516269613.88,998,8.75,71926.0,-10.77,-14.75,-14.89,0,*6A
1516269615.13,999,8.69,71922.8,-10.75,-14.69,-14.83,0,*6E
1516269616.36,1000,8.75,71928.0,-10.75,-14.69,-14.89,0,*5C
1516269617.62,1001,8.75,71926.3,-10.77,-14.79,-14.93,0,*55
1516269618.85,1002,8.75,71928.0,-10.77,-14.75,-14.89,0,*51
1516269620.11,1003,8.69,71928.0,-10.75,-14.55,-14.61,0,*56
1516269621.35,1004,8.69,71926.8,-10.77,-14.47,-14.61,0,*50
1516269622.61,1005,8.75,71926.0,-10.77,-14.43,-14.47,0,*51
1516269623.82,1006,8.75,71928.5,-10.77,-14.89,-15.07,0,*51
1516269625.03,1007,8.75,71930.8,-10.77,-15.29,-15.49,0,*51
1516269626.3,1008,8.75,71928.8,-10.75,-15.35,-15.49,0,*51
1516269627.57,1009,8.75,71928.3,-10.79,-15.29,-15.39,0,*56
1516269628.78,1010,8.75,71928.8,-10.81,-15.11,-15.25,0,*5F
1516269630.03,1011,8.75,71932.0,-10.79,-15.15,-15.29,0,*51
1516269631.26,1012,8.75,71932.5,-10.79,-15.49,-15.67,0,*51
1516269632.53,1013,8.69,71926.5,-10.81,-15.35,-15.39,0,*57
1516269633.79,1014,8.75,71930.3,-10.79,-15.21,-15.29,0,*53
1516269635.02,1015,8.69,71930.0,-10.81,-14.93,-15.11,0,*56
1516269636.28,1016,8.69,71928.5,-10.81,-14.93,-14.97,0,*5A
1516269637.54,1017,8.75,71932.3,-10.81,-14.79,-14.93,0,*5B
1516269638.77,1018,8.69,71930.8,-10.81,-14.65,-14.79,0,*5D
1516269640.01,1019,8.75,71938.5,-10.81,-14.55,-14.69,0,*5E
1516269641.26,1020,8.75,71934.0,-10.81,-14.47,-14.65,0,*5B
1516269642.5,1021,8.75,71932.5,-10.81,-14.47,-14.65,0,*5A
1516269643.72,1022,8.75,71930.3,-10.81,-14.37,-14.37,0,*59
1516269644.93,1023,8.75,71926.8,-10.81,-14.33,-14.33,0,*58
1516269646.14,1024,8.75,71924.3,-10.81,-14.33,-14.37,0,*5B
1516269647.37,1025,8.69,71920.3,-10.81,-14.55,-14.69,0,*51
1516269648.61,1026,8.75,71918.0,-10.81,-15.07,-15.21,0,*59
1516269649.87,1027,8.69,71920.5,-10.83,-15.25,-15.43,0,*5E
1516269651.09,1028,8.75,71926.3,-10.81,-15.11,-15.25,0,*54
1516269652.35,1029,8.75,71922.5,-10.81,-14.83,-14.93,0,*53
1516269653.62,1030,8.75,71924.3,-10.81,-14.47,-14.51,0,*5D
1516269654.84,1031,8.75,71930.8,-10.81,-14.23,-14.33,0,*5A
1516269656.06,1032,8.75,71930.3,-10.81,-14.11,-14.23,0,*59
1516269657.35,1033,8.75,71928.8,-10.83,-13.97,-14.05,0,*57
1516269658.59,1034,8.75,71926.8,-10.83,-14.19,-14.19,0,*5C
1516269659.83,1035,8.75,71928.8,-10.83,-14.19,-14.23,0,*54
1516269661.07,1036,8.75,71928.0,-10.83,-14.19,-14.19,0,*5E
1516269662.32,1037,8.75,71926.0,-10.83,-14.19,-14.23,0,*56
1516269663.58,1038,8.75,71930.0,-10.83,-14.11,-14.05,0,*55
1516269664.84,1039,8.75,71930.0,-10.83,-14.05,-14.11,0,*54
1516269666.08,1040,8.75,71928.0,-10.83,-14.11,-14.11,0,*5F
1516269667.29,1041,8.75,71932.3,-10.81,-14.33,-14.37,0,*58
1516269668.52,1042,8.75,71932.3,-10.81,-14.55,-14.69,0,*50
1516269669.76,1043,8.69,71930.3,-10.81,-14.65,-14.79,0,*53
1516269671.02,1044,8.75,71932.0,-10.83,-14.55,-14.69,0,*54
1516269672.28,1045,8.75,71934.8,-10.83,-14.51,-14.69,0,*51
1516269673.57,1046,8.75,71932.5,-10.79,-14.43,-14.51,0,*5F
1516269674.78,1047,8.69,71932.3,-10.81,-14.33,-14.37,0,*5E
1516269676.02,1048,8.69,71928.5,-10.81,-14.37,-14.51,0,*55
1516269677.25,1049,8.75,71934.5,-10.81,-14.55,-14.69,0,*5B
1516269678.54,1050,8.75,71922.0,-10.83,-14.79,-14.93,0,*5A
1516269679.83,1051,8.75,71924.5,-10.83,-14.83,-14.97,0,*5A
1516269681.12,1052,8.75,71930.0,-10.83,-14.79,-14.83,0,*59
1516269682.39,1053,8.75,71930.3,-10.83,-14.51,-14.65,0,*5A
1516269683.65,1054,8.75,71928.5,-10.83,-14.33,-14.51,0,*5E
1516269684.89,1055,8.75,71926.8,-10.83,-14.19,-14.23,0,*52
1516269686.19,1056,8.69,71924.0,-10.83,-13.97,-13.97,0,*58
1516269687.47,1057,8.75,71938.0,-10.83,-13.83,-13.83,0,*59
1516269688.7,1058,8.75,71930.8,-10.81,-13.69,-13.79,0,*55
1516269689.91,1059,8.75,71926.3,-10.81,-13.65,-13.65,0,*55
1516269691.2,1060,8.75,71934.5,-10.83,-13.97,-13.97,0,*5D
1516269692.44,1061,8.75,71934.3,-10.83,-14.19,-14.19,0,*5C
1516269693.71,1062,8.75,71934.3,-10.79,-14.29,-14.47,0,*52
1516269694.98,1063,8.75,71934.3,-10.81,-14.47,-14.51,0,*5B
1516269696.22,1064,8.75,71930.3,-10.81,-14.37,-14.51,0,*5B
1516269697.49,1065,8.75,71924.3,-10.79,-14.51,-14.61,0,*5E
1516269698.73,1066,8.69,71922.5,-10.81,-14.51,-14.69,0,*52
1516269699.99,1067,8.69,71918.8,-10.81,-14.51,-14.55,0,*5C
1516269701.26,1068,8.69,71916.0,-10.81,-14.47,-14.51,0,*50
1516269702.48,1069,8.75,71920.3,-10.81,-14.23,-14.33,0,*57
1516269703.75,1070,8.75,71926.3,-10.79,-14.19,-14.05,0,*54
1516269705.02,1071,8.75,71922.5,-10.81,-13.97,-13.97,0,*5F
1516269706.27,1072,8.75,71928.5,-10.83,-13.69,-13.79,0,*5F
1516269707.48,1073,8.75,71926.5,-10.81,-13.65,-13.65,0,*5D
1516269708.69,1074,8.69,71926.8,-10.81,-13.51,-13.55,0,*5E
1516269709.89,1075,8.75,71930.3,-10.81,-13.47,-13.47,0,*5B
1516269711.1,1076,8.69,71924.3,-10.81,-13.55,-13.65,0,*5B
1516269712.31,1077,8.75,71924.5,-10.81,-13.55,-13.65,0,*5A
1516269713.53,1078,8.69,71922.8,-10.81,-13.51,-13.55,0,*52
1516269714.74,1079,8.75,71930.5,-10.81,-13.47,-13.55,0,*54
1516269715.97,1080,8.75,71934.5,-10.79,-13.43,-13.43,0,*56
1516269717.25,1081,8.75,71936.5,-10.79,-13.33,-13.33,0,*57
1516269718.47,1082,8.75,71936.0,-10.79,-13.47,-13.47,0,*54
1516269719.68,1083,8.75,71928.5,-10.81,-13.69,-13.93,0,*57
1516269720.94,1084,8.75,71924.8,-10.79,-13.93,-14.01,0,*5E
1516269722.18,1085,8.69,71926.3,-10.79,-14.15,-14.19,0,*5F
1516269723.42,1086,8.75,71924.5,-10.81,-14.65,-14.93,0,*5E
1516269724.65,1087,8.75,71928.0,-10.81,-14.97,-15.11,0,*59
1516269725.93,1088,8.75,71920.0,-10.79,-14.93,-15.01,0,*54
1516269727.16,1089,8.75,71922.8,-10.81,-14.65,-14.79,0,*55
1516269728.42,1090,8.75,71928.0,-10.77,-14.43,-14.51,0,*5A
1516269729.66,1091,8.75,71930.8,-10.79,-14.19,-14.19,0,*56
1516269730.89,1092,8.75,71930.0,-10.81,-13.97,-14.11,0,*5B
1516269732.17,1093,8.75,71934.8,-10.79,-13.87,-13.87,0,*54
1516269733.45,1094,8.75,71930.8,-10.81,-13.83,-13.97,0,*51
1516269734.7,1095,8.75,71930.0,-10.79,-13.73,-13.87,0,*59
1516269735.96,1096,8.75,71924.3,-10.79,-13.87,-13.93,0,*54
1516269737.22,1097,8.75,71926.3,-10.79,-14.01,-14.15,0,*55
1516269738.44,1098,8.75,71924.5,-10.81,-14.11,-14.19,0,*50
1516269739.68,1099,8.69,71926.8,-10.79,-14.15,-14.19,0,*52
1516269740.92,1100,8.75,71930.8,-10.79,-14.15,-14.19,0,*53
1516269742.19,1101,8.75,71932.0,-10.79,-14.05,-14.15,0,*5F
1516269743.46,1102,8.75,71930.8,-10.79,-14.05,-14.15,0,*5C
1516269744.75,1103,8.75,71926.3,-10.79,-14.01,-14.01,0,*5C
1516269746.04,1104,8.75,71930.0,-10.79,-13.87,-14.01,0,*52
1516269747.32,1105,8.75,71928.8,-10.79,-13.79,-13.87,0,*5B
1516269748.61,1106,8.75,71926.8,-10.79,-14.05,-14.05,0,*59
1516269749.9,1107,8.75,71930.3,-10.79,-14.01,-14.05,0,*5C
1516269751.15,1108,8.69,71928.5,-10.79,-14.15,-14.15,0,*57
1516269752.39,1109,8.75,71930.0,-10.79,-14.15,-14.29,0,*59
1516269753.63,1110,8.75,71932.5,-10.79,-14.19,-14.19,0,*5E
1516269754.87,1111,8.75,71932.0,-10.79,-14.19,-14.19,0,*5F
1516269756.11,1112,8.75,71930.3,-10.79,-14.19,-14.29,0,*5F
1516269757.35,1113,8.75,71934.5,-10.79,-14.29,-14.33,0,*56
1516269758.59,1114,8.75,71936.0,-10.79,-14.19,-14.19,0,*5A
1516269759.83,1115,8.69,71932.3,-10.79,-14.19,-14.19,0,*5B
1516269761.09,1116,8.75,71934.5,-10.79,-14.15,-14.05,0,*59
1516269762.34,1117,8.75,71928.3,-10.79,-14.15,-14.15,0,*59
1516269763.6,1118,8.75,71932.8,-10.79,-14.61,-14.75,0,*53
1516269764.87,1119,8.75,71932.3,-10.81,-14.83,-14.97,0,*55
1516269766.13,1120,8.75,71922.3,-10.79,-14.75,-14.89,0,*5E
1516269767.39,1121,8.75,71920.8,-10.79,-14.89,-14.93,0,*57
1516269768.65,1122,8.69,71922.3,-10.81,-14.79,-14.97,0,*58
1516269769.88,1123,8.69,71924.8,-10.81,-14.69,-14.79,0,*58
1516269771.09,1124,8.75,71928.3,-10.81,-14.37,-14.37,0,*5E
1516269772.33,1125,8.69,71930.3,-10.79,-14.19,-14.19,0,*58
1516269773.55,1126,8.75,71934.3,-10.81,-14.19,-14.23,0,*55
1516269774.76,1127,8.75,71932.3,-10.81,-14.19,-14.19,0,*5D
1516269776.01,1128,8.69,71932.8,-10.79,-14.15,-14.15,0,*55
1516269777.23,1129,8.69,71934.3,-10.81,-14.11,-14.19,0,*5B
1516269778.44,1130,8.69,71928.5,-10.81,-14.23,-14.23,0,*5B
1516269779.65,1131,8.75,71928.3,-10.81,-14.33,-14.37,0,*5E
1516269780.87,1132,8.75,71926.8,-10.81,-14.23,-14.33,0,*58
1516269782.14,1133,8.75,71924.5,-10.81,-14.51,-14.79,0,*52
1516269783.38,1134,8.75,71926.8,-10.81,-14.83,-15.07,0,*52
1516269784.64,1135,8.69,71930.8,-10.83,-14.93,-15.07,0,*50
1516269785.89,1136,8.69,71924.0,-10.83,-15.07,-15.21,0,*5B
1516269787.11,1137,8.75,71920.5,-10.81,-15.11,-15.25,0,*5B
1516269788.34,1138,8.69,71920.5,-10.83,-15.07,-15.11,0,*56
1516269789.6,1139,8.69,71914.0,-10.83,-15.07,-15.35,0,*51
1516269790.89,1140,8.69,71924.5,-10.83,-14.83,-14.97,0,*5B
1516269792.14,1141,8.75,71926.8,-10.87,-15.25,-15.49,0,*51
1516269793.4,1142,8.69,71922.3,-10.83,-15.35,-15.53,0,*5C
1516269794.66,1143,8.69,71920.0,-10.83,-15.21,-15.25,0,*59
1516269795.92,1144,8.69,71918.3,-10.83,-15.07,-15.21,0,*5E
1516269797.18,1145,8.75,71922.0,-10.87,-14.97,-15.11,0,*50
1516269798.43,1146,8.75,71928.8,-10.87,-14.61,-14.75,0,*59
1516269799.7,1147,8.75,71926.8,-10.83,-14.37,-14.51,0,*59
1516269800.93,1148,8.75,71926.8,-10.87,-14.29,-14.37,0,*5D
1516269802.18,1149,8.75,71922.5,-10.87,-14.23,-14.23,0,*53
1516269803.42,1150,8.75,71928.8,-10.87,-14.11,-14.15,0,*5F
1516269804.68,1151,8.69,71928.5,-10.87,-14.01,-14.11,0,*5B
1516269805.97,1152,8.69,71930.8,-10.83,-13.97,-14.05,0,*51
1516269807.26,1153,8.75,71936.8,-10.83,-13.97,-14.05,0,*50
1516269808.51,1154,8.75,71938.3,-10.87,-14.15,-14.23,0,*5A
1516269809.75,1155,8.75,71938.3,-10.83,-14.11,-14.11,0,*5A
1516269811.01,1156,8.75,71928.3,-10.83,-14.11,-14.05,0,*5C
1516269812.26,1157,8.75,71930.8,-10.87,-14.15,-14.15,0,*5C
1516269813.5,1158,8.75,71932.3,-10.83,-14.11,-14.19,0,*5F
1516269814.74,1159,8.69,71934.5,-10.83,-14.19,-14.19,0,*56
1516269815.98,1160,8.75,71934.0,-10.83,-14.19,-14.19,0,*5C
1516269817.22,1161,8.75,71932.8,-10.83,-14.19,-14.19,0,*5D
1516269818.46,1162,8.75,71934.3,-10.83,-14.19,-14.19,0,*5E
1516269819.7,1163,8.75,71934.8,-10.87,-14.15,-14.23,0,*5E
1516269820.94,1164,8.69,71934.3,-10.83,-14.11,-14.11,0,*58
1516269822.18,1165,8.69,71928.3,-10.87,-14.15,-14.23,0,*58
1516269823.42,1166,8.69,71930.3,-10.83,-14.11,-14.11,0,*5A
1516269824.66,1167,8.75,71930.3,-10.83,-14.19,-14.19,0,*5B
1516269825.9,1168,8.75,71928.3,-10.87,-14.29,-14.23,0,*5A
1516269827.13,1169,8.69,71924.0,-10.87,-14.37,-14.29,0,*5E
1516269828.38,1170,8.75,71930.5,-10.83,-14.23,-14.23,0,*5D
1516269829.61,1171,8.75,71932.3,-10.83,-14.11,-14.11,0,*5C
1516269830.85,1172,8.75,71934.5,-10.83,-14.11,-14.11,0,*5F
1516269832.09,1173,8.75,71938.8,-10.87,-14.23,-14.23,0,*5A
1516269833.33,1174,8.69,71932.8,-10.83,-14.19,-14.19,0,*59
1516269834.57,1175,8.75,71924.8,-10.83,-14.19,-14.19,0,*58
1516269835.83,1176,8.75,71920.5,-10.87,-14.37,-14.43,0,*5C
1516269837.07,1177,8.69,71914.8,-10.83,-14.23,-14.37,0,*5F
1516269838.35,1178,8.75,71920.0,-10.87,-14.75,-14.97,0,*5D
1516269839.62,1179,8.75,71926.0,-10.83,-14.55,-14.65,0,*57
1516269840.9,1180,8.69,71924.8,-10.87,-14.43,-14.43,0,*56
1516269842.16,1181,8.75,71930.3,-10.83,-14.33,-14.51,0,*57
1516269843.42,1182,8.69,71930.3,-10.87,-14.37,-14.43,0,*57
1516269844.66,1183,8.75,71934.8,-10.87,-14.23,-14.29,0,*5F
1516269845.9,1184,8.69,71934.3,-10.83,-14.11,-14.23,0,*57
1516269847.14,1185,8.69,71932.0,-10.87,-14.23,-14.29,0,*59
1516269848.39,1186,8.75,71936.5,-10.87,-14.15,-14.23,0,*55
1516269849.63,1187,8.75,71940.5,-10.87,-14.23,-14.23,0,*51
1516269850.88,1188,8.75,71934.8,-10.87,-14.23,-14.15,0,*5B
1516269852.11,1189,8.75,71932.5,-10.83,-14.19,-14.11,0,*53
1516269853.35,1190,8.75,71930.3,-10.87,-14.15,-14.11,0,*53
1516269854.65,1191,8.69,71924.5,-10.87,-14.01,-14.01,0,*56
1516269855.88,1192,8.69,71926.8,-10.87,-14.11,-14.11,0,*55
1516269857.13,1193,8.75,71934.0,-10.87,-14.15,-14.15,0,*54
1516269858.37,1194,8.75,71932.0,-10.87,-14.11,-14.15,0,*57
1516269859.61,1195,8.75,71932.8,-10.87,-14.23,-14.23,0,*52
1516269860.88,1196,8.75,71934.8,-10.87,-14.01,-14.11,0,*50
1516269862.14,1197,8.75,71936.8,-10.87,-14.01,-14.11,0,*51
1516269863.4,1198,8.75,71936.8,-10.87,-14.01,-14.11,0,*5E
1516269864.69,1199,8.75,71936.5,-10.87,-13.87,-14.01,0,*57
1516269865.97,1200,8.75,71936.5,-10.87,-13.87,-13.87,0,*5D
1516269867.26,1201,8.69,71938.3,-10.87,-13.83,-13.87,0,*58
1516269868.51,1202,8.75,71936.5,-10.83,-13.79,-13.69,0,*5A
1516269869.8,1203,8.69,71936.8,-10.87,-13.83,-13.83,0,*5E
1516269871.09,1204,8.75,71934.0,-10.83,-13.83,-13.83,0,*5D
1516269872.37,1205,8.75,71934.5,-10.87,-13.87,-13.87,0,*58
1516269873.66,1206,8.75,71936.0,-10.87,-13.97,-14.01,0,*53
1516269874.9,1207,8.75,71934.8,-10.87,-14.11,-14.11,0,*5A
1516269876.16,1208,8.75,71936.3,-10.83,-14.05,-14.11,0,*54
1516269877.4,1209,8.75,71934.8,-10.83,-14.11,-14.19,0,*58
1516269878.64,1210,8.75,71934.3,-10.83,-14.19,-14.19,0,*58
1516269879.87,1211,8.69,71928.0,-10.83,-14.19,-14.11,0,*51
1516269881.14,1212,8.69,71928.5,-10.83,-14.05,-14.19,0,*57
1516269882.43,1213,8.69,71930.3,-10.87,-14.01,-14.01,0,*5F
1516269883.69,1214,8.75,71930.0,-10.83,-13.83,-13.93,0,*5D
1516269884.98,1215,8.69,71924.8,-10.83,-13.83,-13.83,0,*5D
1516269886.24,1216,8.69,71920.8,-10.83,-13.69,-13.79,0,*5F
1516269887.47,1217,8.69,71916.3,-10.83,-13.69,-13.69,0,*5F
1516269888.69,1218,8.69,71918.3,-10.83,-13.65,-13.69,0,*5C
1516269889.95,1219,8.69,71922.8,-10.87,-13.61,-13.51,0,*56
1516269891.19,1220,8.69,71930.5,-10.83,-13.47,-13.51,0,*5C
1516269892.41,1221,8.69,71932.5,-10.83,-13.47,-13.47,0,*5A
1516269893.64,1222,8.75,71934.5,-10.83,-13.47,-13.47,0,*59
1516269894.86,1223,8.75,71932.0,-10.83,-13.47,-13.47,0,*58
1516269896.14,1224,8.75,71936.5,-10.83,-13.33,-13.37,0,*5B
1516269897.43,1225,8.75,71936.5,-10.83,-13.33,-13.33,0,*5E
1516269898.67,1226,8.69,71934.5,-10.83,-13.23,-13.23,0,*5D
1516269899.93,1227,8.69,71934.5,-10.83,-13.23,-13.33,0,*5D
1516269901.19,1228,8.69,71930.3,-10.81,-13.33,-13.37,0,*55
1516269902.47,1229,8.69,71928.0,-10.79,-13.29,-13.29,0,*57
1516269903.76,1230,8.75,71934.8,-10.79,-13.29,-13.29,0,*5F
1516269905.02,1231,8.69,71928.0,-10.79,-13.19,-13.29,0,*5D
1516269906.28,1232,8.69,71928.5,-10.81,-13.37,-13.37,0,*5A
1516269907.5,1233,8.69,71928.3,-10.79,-13.43,-13.47,0,*58
1516269908.73,1234,8.75,71934.5,-10.79,-13.43,-13.47,0,*5F
1516269909.96,1235,8.75,71930.0,-10.79,-13.43,-13.43,0,*5A
1516269911.25,1236,8.75,71932.0,-10.79,-13.29,-13.33,0,*52
1516269912.51,1237,8.69,71934.3,-10.79,-13.19,-13.29,0,*5B
1516269913.73,1238,8.75,71936.8,-10.81,-13.23,-13.19,0,*59
1516269914.93,1239,8.69,71932.0,-10.77,-13.15,-13.07,0,*5B
1516269916.12,1240,8.69,71934.8,-10.77,-13.15,-13.15,0,*56
1516269917.33,1241,8.75,71934.0,-10.77,-13.15,-13.19,0,*5B
1516269918.55,1242,8.75,71932.5,-10.77,-13.19,-13.19,0,*54
1516269919.74,1243,8.69,71938.0,-10.77,-13.15,-13.15,0,*55
1516269920.97,1244,8.75,71944.8,-10.75,-13.15,-13.15,0,*50
1516269922.2,1245,8.75,71952.5,-10.75,-13.47,-13.55,0,*52
1516269923.43,1246,8.69,71942.3,-10.77,-13.79,-13.93,0,*54
1516269924.63,1247,8.75,71940.0,-10.77,-14.33,-14.33,0,*51
1516269925.84,1248,8.75,71938.5,-10.77,-14.19,-14.29,0,*5D
1516269927.1,1249,8.75,71938.0,-10.77,-14.01,-14.05,0,*5B
1516269928.37,1250,8.75,71938.3,-10.77,-14.01,-14.01,0,*57
1516269929.59,1251,8.75,71938.0,-10.77,-13.87,-13.93,0,*53
1516269930.82,1252,8.75,71936.8,-10.77,-13.83,-13.93,0,*54
1516269932.06,1253,8.75,71934.0,-10.77,-14.05,-14.15,0,*55
1516269933.3,1254,8.75,71928.8,-10.77,-14.29,-14.47,0,*5B
1516269934.54,1255,8.69,71930.5,-10.77,-14.19,-14.47,0,*59
1516269935.76,1256,8.69,71922.0,-10.77,-14.65,-14.75,0,*50
1516269936.99,1257,8.69,71920.8,-10.77,-14.75,-14.89,0,*53
1516269938.25,1258,8.75,71922.8,-10.77,-14.75,-14.93,0,*57
1516269939.47,1259,8.75,71922.0,-10.77,-14.93,-15.07,0,*52
1516269940.7,1260,8.69,71918.8,-10.77,-14.79,-14.89,0,*5B
1516269941.96,1261,8.69,71922.0,-10.79,-14.61,-14.75,0,*5E
1516269943.23,1262,8.69,71922.8,-10.79,-14.47,-14.65,0,*58
1516269944.53,1263,8.69,71926.3,-10.79,-14.47,-14.55,0,*5A
1516269945.79,1264,8.69,71924.5,-10.79,-14.51,-14.61,0,*5D
1516269947.07,1265,8.75,71928.0,-10.79,-14.47,-14.65,0,*5F
1516269948.3,1266,8.75,71930.8,-10.81,-14.69,-14.79,0,*5A
1516269949.53,1267,8.69,71930.3,-10.81,-14.69,-14.79,0,*5B
1516269950.79,1268,8.75,71930.3,-10.81,-14.83,-14.97,0,*50
1516269952.06,1269,8.69,71928.3,-10.79,-14.61,-14.79,0,*5A
1516269953.26,1270,8.69,71934.3,-10.81,-14.65,-14.69,0,*50
1516269954.5,1271,8.69,71930.8,-10.81,-14.37,-14.55,0,*59
1516269955.72,1272,8.69,71928.5,-10.81,-14.23,-14.33,0,*5F
1516269956.96,1273,8.75,71932.0,-10.79,-14.19,-14.29,0,*5B
1516269958.19,1274,8.69,71930.3,-10.81,-14.33,-14.51,0,*5C
1516269959.43,1275,8.69,71920.8,-10.81,-14.65,-14.83,0,*51
1516269960.66,1276,8.75,71924.8,-10.81,-14.55,-14.69,0,*55
1516269961.96,1277,8.69,71922.8,-10.79,-14.47,-14.51,0,*5B
1516269963.2,1278,8.69,71926.3,-10.81,-14.55,-14.65,0,*57
1516269964.45,1279,8.75,71930.0,-10.81,-14.51,-14.65,0,*52
1516269965.71,1280,8.69,71926.8,-10.79,-14.43,-14.61,0,*54
1516269967.0,1281,8.69,71926.3,-10.83,-14.51,-14.55,0,*54
1516269968.27,1282,8.69,71924.0,-10.83,-14.51,-14.65,0,*54
1516269969.48,1283,8.75,71924.0,-10.81,-14.37,-14.37,0,*50
1516269970.7,1284,8.75,71920.3,-10.81,-14.23,-14.23,0,*57
1516269971.95,1285,8.69,71920.3,-10.81,-14.05,-14.19,0,*5B
1516269973.18,1286,8.69,71926.8,-10.81,-13.93,-14.05,0,*5D
1516269974.44,1287,8.69,71926.0,-10.81,-13.83,-13.83,0,*54
1516269975.67,1288,8.69,71926.8,-10.83,-13.69,-13.69,0,*59
1516269976.91,1289,8.69,71928.5,-10.83,-13.65,-13.51,0,*5F
1516269978.15,1290,8.69,71934.0,-10.83,-13.51,-13.51,0,*50
1516269979.36,1291,8.69,71930.0,-10.81,-13.47,-13.51,0,*54
1516269980.58,1292,8.75,71934.5,-10.81,-13.37,-13.47,0,*57
1516269981.84,1293,8.69,71930.5,-10.81,-13.37,-13.37,0,*51
1516269983.1,1294,8.75,71932.0,-10.81,-13.33,-13.37,0,*52
1516269984.34,1295,8.75,71932.0,-10.81,-13.23,-13.33,0,*56
1516269985.59,1296,8.75,71932.3,-10.79,-13.19,-13.19,0,*53
1516269986.81,1297,8.75,71932.5,-10.79,-13.15,-13.07,0,*51
1516269988.02,1298,8.69,71930.5,-10.81,-12.97,-13.07,0,*52
1516269989.26,1299,8.69,71932.5,-10.79,-12.93,-12.89,0,*57
1516269990.5,1300,8.69,71934.8,-10.79,-12.93,-12.89,0,*56
1516269991.73,1301,8.75,71936.3,-10.79,-12.93,-13.07,0,*50
1516269993.02,1302,8.69,71934.0,-10.79,-13.01,-13.01,0,*5F
1516269994.22,1303,8.69,71938.0,-10.77,-13.07,-13.15,0,*53
1516269995.47,1304,8.69,71940.5,-10.77,-13.33,-13.29,0,*5C
1516269996.71,1305,8.69,71936.3,-10.77,-13.51,-13.61,0,*55
1516269997.94,1306,8.75,71936.3,-10.75,-13.69,-13.73,0,*5C
1516269999.23,1307,8.75,71936.8,-10.75,-13.83,-13.83,0,*56
1516270000.48,1308,8.69,71932.8,-10.77,-13.87,-13.87,0,*5B
1516270001.71,1309,8.69,71926.5,-10.77,-13.79,-13.73,0,*50
1516270002.96,1310,8.69,71928.0,-10.75,-13.61,-13.69,0,*58
1516270004.23,1311,8.69,71930.5,-10.75,-13.83,-13.73,0,*5E
1516270005.46,1312,8.69,71930.3,-10.77,-14.05,-14.19,0,*5D
1516270006.69,1313,8.69,71928.5,-10.77,-14.43,-14.61,0,*51
1516270007.95,1314,8.75,71932.8,-10.77,-14.75,-15.01,0,*54
1516270009.18,1315,8.69,71932.3,-10.75,-14.69,-14.89,0,*5B
1516270010.42,1316,8.75,71934.3,-10.77,-14.51,-14.65,0,*53
1516270011.64,1317,8.69,71928.0,-10.77,-14.65,-14.75,0,*54
1516270012.85,1318,8.69,71910.8,-10.77,-14.61,-14.65,0,*5E
1516270014.09,1319,8.69,71918.8,-10.77,-14.47,-14.65,0,*5B
1516270015.33,1320,8.75,71924.5,-10.77,-14.47,-14.65,0,*51
1516270016.59,1321,8.75,71926.0,-10.79,-14.65,-14.75,0,*5F
1516270017.82,1322,8.69,71916.8,-10.79,-14.65,-14.89,0,*5F
1516270019.05,1323,8.69,71914.3,-10.79,-14.61,-14.69,0,*54
1516270020.3,1324,8.69,71910.5,-10.81,-14.37,-14.47,0,*5B
1516270021.54,1325,8.69,71914.5,-10.79,-14.19,-14.19,0,*5A
1516270022.77,1326,8.75,71916.0,-10.81,-14.05,-14.11,0,*5B
1516270023.98,1327,8.69,71916.3,-10.81,-13.93,-13.93,0,*5F
1516270025.21,1328,8.75,71926.0,-10.79,-13.65,-13.73,0,*50
1516270026.47,1329,8.75,71930.0,-10.79,-13.61,-13.65,0,*52
1516270027.73,1330,8.69,71928.5,-10.79,-13.51,-13.61,0,*5D
1516270028.96,1331,8.75,71930.8,-10.79,-13.47,-13.51,0,*58
1516270030.2,1332,8.69,71928.3,-10.79,-13.43,-13.43,0,*5C
1516270031.4,1333,8.75,71938.8,-10.77,-13.43,-13.43,0,*53
1516270032.65,1334,8.75,71932.3,-10.77,-13.61,-13.61,0,*54
1516270033.91,1335,8.69,71930.3,-10.77,-13.61,-13.61,0,*55
1516270035.11,1336,8.69,71930.3,-10.77,-13.65,-13.65,0,*56
1516270036.31,1337,8.69,71928.8,-10.77,-13.73,-13.65,0,*50
1516270037.52,1338,8.75,71928.3,-10.77,-13.65,-13.73,0,*5F
1516270038.75,1339,8.75,71936.3,-10.77,-14.01,-14.15,0,*5C
1516270040.02,1340,8.75,71934.5,-10.77,-14.43,-14.47,0,*53
1516270041.26,1341,8.75,71936.8,-10.77,-14.47,-14.65,0,*56
1516270042.49,1342,8.69,71932.0,-10.77,-14.33,-14.51,0,*51
1516270043.69,1343,8.75,71938.5,-10.77,-14.33,-14.33,0,*54
1516270044.95,1344,8.75,71938.5,-10.77,-14.43,-14.51,0,*50
1516270046.19,1345,8.75,71938.0,-10.77,-14.33,-14.47,0,*51
1516270047.39,1346,8.75,71936.0,-10.77,-14.29,-14.33,0,*5A
1516270048.6,1347,8.75,71936.0,-10.77,-14.29,-14.19,0,*53
1516270049.84,1348,8.75,71936.3,-10.79,-14.15,-14.19,0,*5D
1516270051.11,1349,8.75,71924.5,-10.79,-14.05,-14.15,0,*51
1516270052.37,1350,8.75,71926.3,-10.79,-13.93,-14.05,0,*50
1516270053.65,1351,8.69,71918.0,-10.79,-13.87,-13.87,0,*59
1516270054.91,1352,8.69,71920.0,-10.79,-13.93,-14.01,0,*56
1516270056.12,1353,8.69,71916.3,-10.81,-14.11,-14.11,0,*5C
1516270057.35,1354,8.69,71924.3,-10.77,-14.01,-13.93,0,*5E
1516270058.64,1355,8.75,71932.5,-10.79,-14.01,-14.01,0,*5D
1516270059.89,1356,8.75,71930.0,-10.79,-14.15,-14.15,0,*5E
1516270061.16,1357,8.69,71928.0,-10.79,-14.05,-14.15,0,*5E
1516270062.42,1358,8.69,71934.0,-10.79,-13.93,-14.05,0,*58
1516270063.69,1359,8.75,71936.5,-10.79,-13.79,-13.79,0,*51
1516270064.9,1360,8.69,71936.8,-10.81,-13.65,-13.73,0,*5B
1516270066.14,1361,8.69,71934.3,-10.79,-13.51,-13.65,0,*5D
1516270067.37,1362,8.75,71934.8,-10.79,-13.65,-13.65,0,*59
1516270068.64,1363,8.69,71934.0,-10.79,-13.79,-13.79,0,*58
1516270069.87,1364,8.75,71938.5,-10.77,-13.87,-13.93,0,*54
1516270071.09,1365,8.69,71938.0,-10.77,-13.87,-13.93,0,*55
1516270072.32,1366,8.69,71934.0,-10.77,-13.87,-13.93,0,*56
1516270073.54,1367,8.69,71932.0,-10.77,-13.79,-13.93,0,*56
1516270074.75,1368,8.69,71936.0,-10.77,-14.19,-14.29,0,*5E
1516270076.01,1369,8.69,71936.5,-10.77,-14.43,-14.51,0,*5F
1516270077.24,1370,8.69,71932.0,-10.77,-14.33,-14.47,0,*57
1516270078.48,1371,8.69,71926.8,-10.77,-14.33,-14.47,0,*56
1516270079.71,1372,8.75,71930.5,-10.77,-14.33,-14.47,0,*55
1516270080.95,1373,8.69,71926.5,-10.77,-14.33,-14.47,0,*54
1516270082.16,1374,8.75,71932.5,-10.77,-14.19,-14.29,0,*53
1516270083.36,1375,8.69,71934.8,-10.77,-14.29,-14.19,0,*52
1516270084.57,1376,8.69,71930.3,-10.77,-14.19,-14.19,0,*52
1516270085.79,1377,8.75,71938.3,-10.81,-14.23,-14.23,0,*5A
1516270087.0,1378,8.75,71938.5,-10.77,-14.19,-14.19,0,*5C
1516270088.22,1379,8.75,71938.3,-10.77,-14.15,-14.15,0,*5D
1516270089.51,1380,8.69,71936.0,-10.79,-14.05,-14.05,0,*55
1516270090.74,1381,8.69,71938.0,-10.77,-14.33,-14.47,0,*59
1516270092.01,1382,8.69,71936.0,-10.79,-14.51,-14.61,0,*54
1516270093.27,1383,8.69,71928.8,-10.79,-14.61,-14.75,0,*53
1516270094.5,1384,8.69,71924.5,-10.79,-14.33,-14.33,0,*51
1516270095.74,1385,8.69,71924.0,-10.79,-14.33,-14.29,0,*5B
1516270096.95,1386,8.69,71926.3,-10.77,-14.19,-14.29,0,*5E
1516270098.19,1387,8.69,71932.8,-10.79,-14.19,-14.19,0,*52
1516270099.43,1388,8.75,71938.0,-10.79,-14.19,-14.29,0,*5E
1516270100.67,1389,8.75,71938.3,-10.79,-14.19,-14.33,0,*54
1516270101.93,1390,8.75,71936.8,-10.79,-14.43,-14.61,0,*54
1516270103.19,1391,8.75,71938.0,-10.79,-14.33,-14.51,0,*51
1516270104.42,1392,8.75,71936.8,-10.79,-14.33,-14.29,0,*5D
1516270105.64,1393,8.75,71932.5,-10.81,-14.23,-14.23,0,*50